Regional Weather Roundup
Issued by NWS

Home | Current Version | Previous Version | Text Only | Print | Product List | Glossary On
Versions: 1 2 3 4 5 6 7 8 9 10 11 12 13 14 15 16 17 18 19 20 21 22 23 24 25 26 27 28 29 30 31 32 33 34 35 36 37 38 39 40 41 42 43 44 45 46 47 48 49 50
000
ASUS43 KLSX 112007
RWRMO

WEATHER SUMMARY FOR MISSOURI
NATIONAL WEATHER SERVICE SPRINGFIELD MO
200 PM CST MON NOV 11 2019

NOTE: "FAIR" INDICATES FEW OR NO CLOUDS BELOW 12,000 FEET WITH NO
       SIGNIFICANT WEATHER AND/OR OBSTRUCTIONS TO VISIBILITY.
       CURRENT SKY AND/OR WEATHER CONDITIONS ARE NOT AVAILABLE FOR
       CHILLICOTHE AND FARMINGTON.

MOZ001>031-035>038-043-044-053-054-112100-
...NORTHERN AND WESTERN MISSOURI...

CITY           SKY/WX    TMP DP  RH WIND       PRES   REMARKS
KANSAS CTY INT PTSUNNY   25  11  55 N23G37    30.51R WCI  10
KANSAS C DTWN  MOSUNNY   24  12  60 N22G31    30.51S WCI   9
LEE`S SUMMIT   MOSUNNY   23  11  60 N22G32    30.49R WCI   8
ST JOSEPH      MOSUNNY   23   9  55 N16G30    30.57R WCI  10
CHILLICOTHE      N/A     24  12  60 N9G24     30.51R WCI  14
KIRKSVILLE     MOSUNNY   22  10  60 NW18G30   30.43S WCI   7

$$
MOZ066>068-077>081-088>096-101>105-112100-
...SOUTHWEST MISSOURI...

CITY           SKY/WX    TMP DP  RH WIND       PRES   REMARKS
SPRINGFIELD    LGT SNOW  25  21  85 N25G37    30.33R FOG     WCI   9
JOPLIN         CLOUDY    23  18  81 N23G35    30.44R WCI   7
BRANSON        LGT RAIN  28  27  93 NW18G25   30.28R FOG     WCI  16

$$
MOZ032>034-039>042-045>050-055>058-069>072-112100-
...CENTRAL MISSOURI...

CITY           SKY/WX    TMP DP  RH WIND       PRES   REMARKS
COLUMBIA       LGT SNOW  22  18  85 N16       30.38R VSB 3/4 WCI   8
JEFFERSON CITY LGT SNOW  24  18  77 NW16G22   30.41R WCI  11
ROLLA          LGT SNOW  24  20  84 N16G31    30.30R FOG     WCI  11
SEDALIA        LGT SNOW  21  17  84 N20G26    30.45R FOG     WCI   6
WHITEMAN AFB   CLOUDY    21  20  98 N12       30.42R BLWGSNOWWCI   9
WARRENSBURG      N/A    N/A N/A N/A MISG        N/A
OSAGE BEACH    LGT SNOW  23  19  86 N13G30    30.39R VSB 3/4 WCI  11

$$
MOZ051-052-059>065-112100-
...EAST CENTRAL MISSOURI...

CITY           SKY/WX    TMP DP  RH WIND       PRES   REMARKS
ST LOUIS INTL  LGT SNOW  28  23  81 N15G24    30.30R WCI  16
SPIRIT OF STL  LGT SNOW  28  24  85 N15G25    30.30R FOG     WCI  16
ST CHARLES       N/A    N/A N/A N/A MISG      30.32R

$$
MOZ072>076-082>087-097>100-106>115-112100-
...SOUTH CENTRAL AND SOUTHEAST MISSOURI...

CITY           SKY/WX    TMP DP  RH WIND       PRES   REMARKS
CAPE GIRARDEAU CLOUDY    36  31  82 N24G36    30.17R WCI  24
FARMINGTON     LGT SNOW  29  28  96 N14G24    30.21R VSB 3/4 WCI  18
POPLAR BLUFF   LGT SNOW  37  33  85 N17G25    30.17R FOG     WCI  27
WEST PLAINS    FRZ RAIN  31  27  85 N17G29    30.22R FOG     WCI  19

$$



USA.gov is the U.S. government's official web portal to all federal, state and local government web resources and services.